Milwaukee Timmerman, WI

9:52 AM CDT on June 27, 2017 (GMT -0500)
Timmerman

Weather History for KMWC - September, 2013

Change the Weather History Date:

Friday, September 6, 2013

  Actual Average Record
Temperature  
Mean Temperature 64 °F -  
Max Temperature 82 °F 79 °F 97 °F (1990)
Min Temperature 46 °F 57 °F 37 °F (1950)
Degree Days  
Heating Degree Days 1    
Growing Degree Days 14 (Base 50)    
Moisture  
Dew Point 52 °F    
Average Humidity 71    
Maximum Humidity 93    
Minimum Humidity 33    
Precipitation  
Precipitation 0.00 in - - ()
Sea Level Pressure  
Sea Level Pressure 30.15 in    
Wind  
Wind Speed 2 mph (SSW)    
Max Wind Speed 10 mph    
Max Gust Speed -    
Visibility 10 miles    
Events      
Averages and records for this station are not official NWS values.
T = Trace of Precipitation, MM = Missing Value Source: NWS Daily Summary

Daily Weather History Graph

Daily Weather History Graph

Search for Another Location

Airport or City:

Trip Planner

Search our weather history database for the weather conditions in past years. The results will help you decide how hot, cold, wet, or windy it might be!

Date:

Astronomy

Sep. 06, 2013 Rise Set
Actual Time 6:22 AM CDT 7:17 PM CDT
Civil Twilight 5:53 AM CDT 7:46 PM CDT
Nautical Twilight 5:18 AM CDT 8:21 PM CDT
Astronomical Twilight 4:42 AM CDT 8:56 PM CDT
Moon 7:37 AM CDT (9/6) 7:37 PM CDT (9/6)
Length of Visible Light 13h 53m
Length of Day
12h 55m
New Moon, 2% of the Moon is Illuminated
Sep 6
New Moon
Sep 12
First Quarter
Sep 19
Full
Sep 26
Last Quarter
Oct 4
New

Hourly Weather History & Observations

Time (CDT) Temp. Heat Index Dew Point Humidity Pressure Visibility Wind Dir Wind Speed Gust Speed Precip Events Conditions
12:15 AM 51.8 °F - 46.4 °F 82% 30.25 in 10.0 mi Calm Calm - N/A   Clear
12:35 AM 53.6 °F - 46.4 °F 77% 30.25 in 10.0 mi Calm Calm - N/A   Clear
12:55 AM 53.6 °F - 46.4 °F 77% 30.25 in 10.0 mi Calm Calm - N/A   Clear
1:15 AM 50.0 °F - 46.4 °F 87% 30.24 in 10.0 mi Calm Calm - N/A   Clear
1:35 AM 51.8 °F - 46.4 °F 82% 30.24 in 10.0 mi Calm Calm - N/A   Clear
1:55 AM 51.8 °F - 46.4 °F 82% 30.24 in 10.0 mi Calm Calm - N/A   Clear
2:15 AM 51.8 °F - 46.4 °F 82% 30.24 in 10.0 mi Calm Calm - N/A   Clear
2:35 AM 50.0 °F - 46.4 °F 87% 30.23 in 10.0 mi Calm Calm - N/A   Clear
2:55 AM 50.0 °F - 44.6 °F 82% 30.23 in 10.0 mi Calm Calm - N/A   Clear
3:15 AM 50.0 °F - 46.4 °F 87% 30.23 in 10.0 mi Calm Calm - N/A   Clear
3:35 AM 50.0 °F - 44.6 °F 82% 30.23 in 10.0 mi Calm Calm - N/A   Clear
3:55 AM 50.0 °F - 44.6 °F 82% 30.23 in 10.0 mi Calm Calm - N/A   Clear
4:15 AM 50.0 °F - 44.6 °F 82% 30.24 in 10.0 mi Calm Calm - N/A   Clear
4:35 AM 50.0 °F - 44.6 °F 82% 30.24 in 10.0 mi Calm Calm - N/A   Clear
4:55 AM 50.0 °F - 44.6 °F 82% 30.23 in 10.0 mi Calm Calm - N/A   Clear
5:15 AM 50.0 °F - 44.6 °F 82% 30.23 in 10.0 mi Calm Calm - N/A   Clear
5:35 AM 50.0 °F - 44.6 °F 82% 30.23 in 10.0 mi Calm Calm - N/A   Clear
5:55 AM 46.4 °F - 44.6 °F 93% 30.23 in 10.0 mi Calm Calm - N/A   Clear
6:15 AM 50.0 °F - 44.6 °F 82% 30.23 in 10.0 mi Calm Calm - N/A   Clear
6:35 AM 50.0 °F - 46.4 °F 87% 30.23 in 10.0 mi Calm Calm - N/A   Clear
6:45 AM 51.8 °F - 46.4 °F 82% 30.23 in 10.0 mi Calm Calm - N/A   Clear
6:55 AM 50.0 °F - 44.6 °F 82% 30.23 in 10.0 mi Calm Calm - N/A   Clear
7:45 AM 55.4 °F - 50.0 °F 82% 30.23 in 10.0 mi Calm Calm - N/A   Clear
8:45 AM 64.4 °F - 51.8 °F 64% 30.21 in 10.0 mi South 5.8 mph - N/A   Clear
9:45 AM 71.6 °F - 42.8 °F 35% 30.20 in 10.0 mi South 8.1 mph - N/A   Scattered Clouds
10:45 AM 73.4 °F - 42.8 °F 33% 30.18 in 10.0 mi South 8.1 mph - N/A   Clear
11:45 AM 75.2 °F - 53.6 °F 47% 30.18 in 10.0 mi WSW 5.8 mph - N/A   Scattered Clouds
12:45 PM 78.8 °F - 57.2 °F 47% 30.15 in 10.0 mi WSW 5.8 mph - N/A   Scattered Clouds
1:45 PM 80.6 °F 81.1 °F 59.0 °F 48% 30.11 in 10.0 mi SSW 8.1 mph - N/A   Clear
2:45 PM 82.4 °F 82.9 °F 60.8 °F 48% 30.08 in 10.0 mi SW 8.1 mph - N/A   Clear
3:45 PM 82.4 °F 82.9 °F 60.8 °F 48% 30.07 in 10.0 mi SW 9.2 mph - N/A   Scattered Clouds
4:45 PM 82.4 °F 82.9 °F 60.8 °F 48% 30.06 in 10.0 mi SSW 6.9 mph - N/A   Scattered Clouds
5:45 PM 82.4 °F 82.9 °F 60.8 °F 48% 30.05 in 10.0 mi SW 9.2 mph - N/A   Scattered Clouds
6:45 PM 80.6 °F 81.8 °F 62.6 °F 54% 30.03 in 10.0 mi SSW 10.4 mph - N/A   Clear
7:45 PM 78.8 °F - 62.6 °F 57% 30.02 in 10.0 mi SSW 6.9 mph - N/A   Clear
8:45 PM 77.0 °F - 62.6 °F 61% 30.02 in 10.0 mi South 8.1 mph - N/A   Clear
9:15 PM 73.4 °F - 62.6 °F 69% 30.03 in 10.0 mi South 6.9 mph - N/A   Clear
9:35 PM 73.4 °F - 62.6 °F 69% 30.02 in 10.0 mi South 6.9 mph - N/A   Clear
9:55 PM 73.4 °F - 62.6 °F 69% 30.02 in 10.0 mi South 8.1 mph - N/A   Clear
10:15 PM 71.6 °F - 62.6 °F 73% 30.02 in 10.0 mi South 5.8 mph - N/A   Clear
10:35 PM 71.6 °F - 62.6 °F 73% 30.01 in 10.0 mi South 5.8 mph - N/A   Clear
10:55 PM 71.6 °F - 62.6 °F 73% 30.01 in 10.0 mi SSW 5.8 mph - N/A   Clear
11:15 PM 71.6 °F - 62.6 °F 73% 30.01 in 10.0 mi SSW 4.6 mph - N/A   Clear
11:35 PM 71.6 °F - 62.6 °F 73% 30.01 in 10.0 mi SSW 4.6 mph - N/A   Clear
11:55 PM 71.6 °F - 62.6 °F 73% 30.00 in 10.0 mi SSW 6.9 mph - N/A   Clear